Location: Glen Avon
(34.0117°N, 117.4848°W)
Time: 12:37:44
(UTC+00:00)

Cosmos 1441 Rocket - Pass Details

Date: 01 August 2021
Orbit: 495 x 539 km, 81.1° (Epoch: 17 September)

Event Time Altitude Azimuth Distance (km) Brightness Sun altitude
Rises 12:07:04 0° 348° (NNW) 2,680 7.1 -11.0°
Reaches altitude 10° 12:09:14 10° 346° (NNW) 1,791 6.1 -10.6°
Maximum altitude 12:13:09 66° 264° (W) 589 3.2 -9.9°
Drops below altitude 10° 12:17:03 10° 182° (S) 1,789 5.6 -9.2°
Sets 12:19:13 0° 179° (S) 2,676 6.5 -8.8°
